SP8EBC-11 Weather Reports


time (UTC)temp
C
wind
direction
speed
KPH
gust
KPH
rain 1hr
cm
rain 24hr
cm
rain mn
cm
humidity
%
barometer
mb
20260508075412 7 43 9.7 12.9 0.00 0.00 0.00 88 1000.8
20260508075212 7 38 9.7 12.9 0.00 0.00 0.00 88 1000.8
20260508075012 7 48 9.7 12.9 0.00 0.00 0.00 88 1000.7
20260508074812 7 51 9.7 12.9 0.00 0.00 0.00 88 1000.6
20260508074612 7 52 9.7 12.9 0.00 0.00 0.00 88 1000.6
20260508074412 7 47 9.7 12.9 0.00 0.00 0.00 88 1000.6
20260508074212 7 48 11.3 14.5 0.00 0.00 0.00 88 1000.5
20260508074012 7 50 9.7 12.9 0.00 0.00 0.00 88 1000.5
20260508073812 7 45 9.7 11.3 0.00 0.00 0.00 88 1000.6
20260508073611 7 37 9.7 11.3 0.00 0.00 0.00 88 1000.5
20260508073411 7 37 9.7 12.9 0.00 0.00 0.00 88 1000.5
20260508073211 7 34 9.7 11.3 0.00 0.00 0.00 88 1000.5
20260508073011 7 36 11.3 14.5 0.00 0.00 0.00 88 1000.5
20260508072811 7 34 11.3 14.5 0.00 0.00 0.00 88 1000.4
20260508072611 7 23 11.3 14.5 0.00 0.00 0.00 88 1000.4
20260508072411 7 16 9.7 11.3 0.00 0.00 0.00 88 1000.4
20260508072210 7 18 9.7 14.5 0.00 0.00 0.00 88 1000.5
20260508072002 7 17 9.7 12.9 0.00 0.00 0.00 88 1000.5
20260508071802 7 18 9.7 12.9 0.00 0.00 0.00 87 1000.5
20260508071602 7 22 11.3 12.9 0.00 0.00 0.00 88 1000.5
20260508071402 7 19 11.3 12.9 0.00 0.00 0.00 87 1000.4
20260508071202 7 17 9.7 11.3 0.00 0.00 0.00 87 1000.4
20260508071003 7 25 9.7 12.9 0.00 0.00 0.00 88 1000.5
20260508070803 7 16 9.7 12.9 0.00 0.00 0.00 88 1000.4
20260508070602 7 15 8.0 9.7 0.00 0.00 0.00 87 1000.4
20260508070402 7 15 6.4 9.7 0.00 0.00 0.00 88 1000.4
20260508070202 7 16 6.4 9.7 0.00 0.00 0.00 87 1000.4
20260508070002 7 27 6.4 8.0 0.00 0.00 0.00 88 1000.4
20260508065802 7 32 8.0 9.7 0.00 0.00 0.00 88 1000.3
20260508065602 7 22 8.0 12.9 0.00 0.00 0.00 88 1000.3
20260508065402 7 26 9.7 12.9 0.00 0.00 0.00 88 1000.3
20260508065202 7 28 11.3 14.5 0.00 0.00 0.00 87 1000.3
20260508065002 7 31 11.3 14.5 0.00 0.00 0.00 87 1000.3
20260508064802 7 30 11.3 14.5 0.00 0.00 0.00 87 1000.3
20260508064602 7 29 12.9 17.7 0.00 0.00 0.00 87 1000.2
20260508064402 7 29 12.9 17.7 0.00 0.00 0.00 87 1000.2
20260508064202 7 33 12.9 16.1 0.00 0.00 0.00 88 1000.2
20260508064002 7 40 12.9 16.1 0.00 0.00 0.00 88 1000.2
20260508063802 7 35 9.7 14.5 0.00 0.00 0.00 87 1000.1
20260508063602 7 30 11.3 14.5 0.00 0.00 0.00 88 1000.1
20260508063401 7 30 9.7 14.5 0.00 0.00 0.00 87 1000.1
20260508063201 7 26 11.3 14.5 0.00 0.00 0.00 87 1000.1
20260508063001 7 22 12.9 16.1 0.00 0.00 0.00 87 1000.1
20260508062801 7 23 11.3 14.5 0.00 0.00 0.00 87 1000.1
20260508062601 7 18 9.7 12.9 0.00 0.00 0.00 87 1000.1
20260508062401 7 34 11.3 16.1 0.00 0.00 0.00 87 1000.1
20260508062201 7 32 12.9 16.1 0.00 0.00 0.00 87 1000.1
20260508062001 7 35 14.5 17.7 0.00 0.00 0.00 87 1000.1
20260508061801 7 33 16.1 19.3 0.00 0.00 0.00 87 1000.1
20260508061601 7 36 16.1 19.3 0.00 0.00 0.00 87 1000.1
20260508061401 7 37 14.5 16.1 0.00 0.00 0.00 87 1000.0
20260508061201 7 41 14.5 17.7 0.00 0.00 0.00 87 1000.0
20260508061001 7 41 12.9 17.7 0.00 0.00 0.00 87 999.9
20260508060801 7 32 9.7 14.5 0.00 0.00 0.00 87 999.9
20260508060601 7 25 12.9 17.7 0.00 0.00 0.00 87 999.9
20260508060401 7 29 16.1 20.9 0.00 0.00 0.00 87 999.9
20260508060200 7 19 16.1 20.9 0.00 0.00 0.00 87 999.8
20260508060001 7 16 14.5 17.7 0.00 0.00 0.00 87 999.8
20260508055800 7 17 12.9 17.7 0.00 0.00 0.00 87 999.8
20260508055600 7 27 12.9 17.7 0.00 0.00 0.00 87 999.8
20260508055400 7 27 12.9 17.7 0.00 0.00 0.00 87 999.8
20260508055200 7 20 11.3 14.5 0.00 0.00 0.00 87 999.8
20260508055000 7 21 12.9 14.5 0.00 0.00 0.00 87 999.8
20260508054800 7 27 12.9 14.5 0.00 0.00 0.00 87 999.8
20260508054600 7 37 11.3 14.5 0.00 0.00 0.00 87 999.7
20260508054400 7 32 9.7 12.9 0.00 0.00 0.00 87 999.7
20260508054200 7 28 11.3 14.5 0.00 0.00 0.00 87 999.8
20260508054000 7 27 12.9 16.1 0.00 0.00 0.00 87 999.7
20260508053800 7 29 12.9 16.1 0.00 0.00 0.00 87 999.7
20260508053600 7 25 14.5 17.7 0.00 0.00 0.00 87 999.7
20260508053400 7 31 14.5 22.5 0.00 0.00 0.00 87 999.6
20260508053159 7 26 11.3 22.5 0.00 0.00 0.00 87 999.6
20260508052959 7 32 12.9 16.1 0.00 0.00 0.00 87 999.6
20260508052759 7 38 12.9 16.1 0.00 0.00 0.00 87 999.7
20260508052559 7 23 11.3 16.1 0.00 0.00 0.00 87 999.7
20260508052359 7 19 12.9 14.5 0.00 0.00 0.00 87 999.7
20260508052159 7 21 12.9 16.1 0.00 0.00 0.00 87 999.7
20260508051959 7 20 9.7 16.1 0.00 0.00 0.00 87 999.8
20260508051759 7 28 9.7 14.5 0.00 0.00 0.00 87 999.8
20260508051559 7 26 12.9 16.1 0.00 0.00 0.00 87 999.8
20260508051359 7 23 12.9 17.7 0.00 0.00 0.00 87 999.8
20260508051159 7 23 12.9 17.7 0.00 0.00 0.00 87 999.7
20260508050959 7 29 11.3 14.5 0.00 0.00 0.00 87 999.6
20260508050759 7 25 9.7 12.9 0.00 0.00 0.00 87 999.6
20260508050559 7 20 9.7 12.9 0.00 0.00 0.00 87 999.6
20260508050359 7 20 9.7 11.3 0.00 0.00 0.00 87 999.5
20260508050159 7 21 8.0 11.3 0.00 0.00 0.00 87 999.5
20260508045958 7 18 9.7 12.9 0.00 0.00 0.00 87 999.6
20260508045758 7 14 9.7 14.5 0.00 0.00 0.00 87 999.7
20260508045558 7 15 11.3 14.5 0.00 0.00 0.00 88 999.7
20260508045358 7 18 9.7 12.9 0.00 0.00 0.00 87 999.7
20260508045158 7 23 9.7 12.9 0.00 0.00 0.00 87 999.8
20260508044958 7 21 11.3 16.1 0.00 0.00 0.00 87 999.8
20260508044807 7 18 11.3 17.7 0.00 0.00 0.00 87 999.8
20260508044352 7 15 9.7 11.3 0.00 0.00 0.00 87 999.9
20260508044152 7 19 9.7 12.9 0.00 0.00 0.00 87 999.9
20260508043952 7 20 11.3 14.5 0.00 0.00 0.00 87 999.9
20260508043752 7 20 9.7 14.5 0.00 0.00 0.00 87 999.8
20260508043553 7 18 9.7 12.9 0.00 0.00 0.00 87 999.8
20260508043353 7 16 11.3 14.5 0.00 0.00 0.00 87 999.8
20260508043153 7 14 12.9 17.7 0.00 0.00 0.00 87 999.8
20260508042952 7 8 11.3 16.1 0.00 0.00 0.00 87 999.7
20260508042752 7 16 9.7 12.9 0.00 0.00 0.00 87 999.7
20260508042552 7 17 9.7 12.9 0.00 0.00 0.00 87 999.6
20260508042352 7 10 8.0 11.3 0.00 0.00 0.00 87 999.6
20260508042152 7 15 9.7 11.3 0.00 0.00 0.00 87 999.5
20260508041952 7 25 9.7 11.3 0.00 0.00 0.00 87 999.5
20260508041752 7 23 9.7 11.3 0.00 0.00 0.00 87 999.6
20260508041552 7 24 9.7 12.9 0.00 0.00 0.00 87 999.6
20260508041351 7 24 9.7 12.9 0.00 0.00 0.00 87 999.6
20260508041151 7 21 9.7 12.9 0.00 0.00 0.00 87 999.6
20260508040951 7 17 11.3 16.1 0.00 0.00 0.00 87 999.6
20260508040751 7 12 9.7 16.1 0.00 0.00 0.00 87 999.6
20260508040552 7 20 8.0 11.3 0.00 0.00 0.00 87 999.6
20260508040352 7 26 9.7 12.9 0.00 0.00 0.00 87 999.6
20260508040151 7 18 8.0 11.3 0.00 0.00 0.00 87 999.6
20260508035952 7 24 8.0 11.3 0.00 0.00 0.00 87 999.6
20260508035751 7 17 9.7 11.3 0.00 0.00 0.00 87 999.6
20260508035551 7 15 8.0 9.7 0.00 0.00 0.00 87 999.5
20260508035351 7 20 8.0 9.7 0.00 0.00 0.00 87 999.5
20260508035151 7 17 11.3 14.5 0.00 0.00 0.00 87 999.4
20260508034951 7 21 11.3 14.5 0.00 0.00 0.00 88 999.4
20260508034751 7 18 9.7 12.9 0.00 0.00 0.00 87 999.5
20260508034551 7 14 9.7 12.9 0.00 0.00 0.00 87 999.5
20260508034351 7 16 8.0 11.3 0.00 0.00 0.00 87 999.5
20260508034151 7 14 8.0 11.3 0.00 0.00 0.00 87 999.5
20260508033950 7 14 8.0 11.3 0.00 0.00 0.00 87 999.6
20260508033751 7 8 9.7 11.3 0.00 0.00 0.00 87 999.6
20260508033551 7 354 9.7 11.3 0.00 0.00 0.00 88 999.6
20260508033350 7 345 8.0 9.7 0.00 0.00 0.00 87 999.6
20260508033150 7 352 6.4 9.7 0.00 0.00 0.00 87 999.6
20260508032950 7 6 8.0 12.9 0.00 0.00 0.00 87 999.6
20260508032750 7 11 9.7 12.9 0.00 0.00 0.00 88 999.6
20260508032550 7 15 8.0 11.3 0.00 0.00 0.00 87 999.6
20260508032350 7 13 8.0 9.7 0.00 0.00 0.00 87 999.5
20260508032150 7 0 8.0 9.7 0.00 0.00 0.00 88 999.5
20260508031950 7 2 9.7 11.3 0.00 0.00 0.00 88 999.5
20260508031750 7 20 9.7 14.5 0.00 0.00 0.00 87 999.5
20260508031550 7 23 11.3 16.1 0.00 0.00 0.00 87 999.5
20260508031350 7 23 9.7 11.3 0.00 0.00 0.00 87 999.5
20260508031149 7 22 8.0 9.7 0.00 0.00 0.00 87 999.5
20260508030949 7 28 6.4 9.7 0.00 0.00 0.00 87 999.6
20260508030749 7 33 8.0 9.7 0.00 0.00 0.00 87 999.5
20260508030549 7 30 8.0 9.7 0.00 0.00 0.00 87 999.6
20260508030349 7 30 8.0 11.3 0.00 0.00 0.00 87 999.6
20260508030149 7 35 9.7 12.9 0.00 0.00 0.00 87 999.6
20260508025949 7 31 8.0 12.9 0.00 0.00 0.00 88 999.6
20260508025749 7 38 9.7 11.3 0.00 0.00 0.00 88 999.6
20260508025549 7 31 9.7 11.3 0.00 0.00 0.00 88 999.6
20260508025349 7 30 9.7 9.7 0.00 0.00 0.00 88 999.6
20260508025149 7 34 9.7 14.5 0.00 0.00 0.00 87 999.6
20260508024949 7 30 8.0 11.3 0.00 0.00 0.00 87 999.6
20260508024749 7 30 9.7 12.9 0.00 0.00 0.00 87 999.6
20260508024549 7 25 9.7 12.9 0.00 0.00 0.00 87 999.6
20260508024349 7 24 9.7 12.9 0.00 0.00 0.00 87 999.6
20260508024149 7 25 8.0 11.3 0.00 0.00 0.00 87 999.6
20260508023948 7 30 9.7 12.9 0.00 0.00 0.00 87 999.6
20260508023748 7 33 11.3 14.5 0.00 0.00 0.00 87 999.6
20260508023548 7 32 11.3 16.1 0.00 0.00 0.00 87 999.5
20260508023348 7 29 11.3 12.9 0.00 0.00 0.00 87 999.5
20260508023148 7 35 11.3 12.9 0.00 0.00 0.00 87 999.5
20260508022948 7 34 9.7 11.3 0.00 0.00 0.00 87 999.6
20260508022748 7 32 9.7 16.1 0.00 0.00 0.00 87 999.5
20260508022548 7 31 11.3 16.1 0.00 0.00 0.00 87 999.5
20260508022348 7 30 11.3 12.9 0.00 0.00 0.00 87 999.5
20260508022148 7 23 9.7 12.9 0.00 0.00 0.00 87 999.5
20260508021948 7 23 6.4 12.9 0.00 0.00 0.00 87 999.5
20260508021748 7 23 6.4 9.7 0.00 0.00 0.00 87 999.5
20260508021548 7 19 8.0 9.7 0.00 0.00 0.00 87 999.5
20260508021348 7 18 6.4 8.0 0.00 0.00 0.00 87 999.5
20260508021148 7 28 9.7 12.9 0.00 0.00 0.00 87 999.5
20260508020941 7 24 9.7 12.9 0.00 0.00 0.00 87 999.5
20260508020739 7 21 9.7 12.9 0.00 0.00 0.00 87 999.4
20260508020540 7 21 9.7 12.9 0.00 0.00 0.00 87 999.4
20260508020339 7 20 11.3 16.1 0.00 0.00 0.00 88 999.3
20260508020140 7 17 11.3 16.1 0.00 0.00 0.00 88 999.3
20260508015940 7 21 11.3 16.1 0.00 0.00 0.00 88 999.3
20260508015739 7 15 11.3 16.1 0.00 0.00 0.00 88 999.3
20260508015539 7 16 11.3 14.5 0.00 0.00 0.00 88 999.3
20260508015339 7 18 11.3 14.5 0.00 0.00 0.00 88 999.3
20260508015139 7 17 11.3 14.5 0.00 0.00 0.00 88 999.4
20260508014939 7 14 11.3 14.5 0.00 0.00 0.00 88 999.4
20260508014739 8 8 9.7 11.3 0.00 0.00 0.00 88 999.4
20260508014539 8 6 8.0 9.7 0.00 0.00 0.00 88 999.4
20260508014339 8 11 6.4 9.7 0.00 0.00 0.00 88 999.4
20260508014138 8 11 6.4 9.7 0.00 0.00 0.00 88 999.4
20260508013938 8 13 6.4 9.7 0.00 0.00 0.00 88 999.4
20260508013738 8 16 6.4 8.0 0.00 0.00 0.00 88 999.4
20260508013538 8 15 6.4 9.7 0.00 0.00 0.00 88 999.5
20260508013339 8 21 6.4 9.7 0.00 0.00 0.00 88 999.5
20260508013139 8 21 6.4 9.7 0.00 0.00 0.00 88 999.5
20260508012939 8 23 8.0 9.7 0.00 0.00 0.00 88 999.4
20260508012739 8 34 8.0 12.9 0.00 0.00 0.00 88 999.4
20260508012538 8 30 8.0 12.9 0.00 0.00 0.00 88 999.4
20260508012338 8 23 6.4 8.0 0.00 0.00 0.00 88 999.4
20260508012138 8 25 6.4 8.0 0.00 0.00 0.00 88 999.4
20260508011938 8 29 8.0 14.5 0.00 0.00 0.00 88 999.4
20260508011738 8 33 8.0 14.5 0.00 0.00 0.00 88 999.4
20260508011538 8 30 6.4 9.7 0.00 0.00 0.00 88 999.4
20260508011338 8 22 6.4 8.0 0.00 0.00 0.00 88 999.4
20260508011137 8 20 6.4 8.0 0.00 0.00 0.00 88 999.4
20260508010938 8 26 8.0 9.7 0.00 0.00 0.00 88 999.4
20260508010737 8 27 8.0 9.7 0.00 0.00 0.00 88 999.4
20260508010537 8 29 8.0 9.7 0.00 0.00 0.00 88 999.3
20260508010338 8 27 6.4 9.7 0.00 0.00 0.00 88 999.3
20260508010138 8 29 4.8 6.4 0.00 0.00 0.00 88 999.4
20260508005938 8 28 4.8 6.4 0.00 0.00 0.00 88 999.4
20260508005738 8 31 4.8 6.4 0.00 0.00 0.00 88 999.4
20260508005537 8 34 4.8 6.4 0.00 0.00 0.00 88 999.4
20260508005337 8 30 4.8 6.4 0.00 0.00 0.00 88 999.3
20260508005137 8 23 4.8 6.4 0.00 0.00 0.00 88 999.3
20260508004937 8 21 4.8 6.4 0.00 0.00 0.00 88 999.3
20260508004737 8 17 4.8 6.4 0.00 0.00 0.00 88 999.3
20260508004537 8 26 4.8 6.4 0.00 0.00 0.00 88 999.3
20260508004337 8 30 4.8 6.4 0.00 0.00 0.00 88 999.2
20260508004137 8 26 4.8 6.4 0.00 0.00 0.00 88 999.3
20260508003936 8 18 4.8 6.4 0.00 0.00 0.00 88 999.3
20260508003736 8 16 4.8 6.4 0.00 0.00 0.00 88 999.4
20260508003536 8 19 4.8 6.4 0.00 0.00 0.00 88 999.4
20260508003337 8 27 4.8 4.8 0.00 0.00 0.00 88 999.4
20260508003137 8 30 4.8 6.4 0.00 0.00 0.00 88 999.3
20260508002937 8 23 4.8 6.4 0.00 0.00 0.00 87 999.4
20260508002736 8 22 4.8 6.4 0.00 0.00 0.00 88 999.4
20260508002537 8 11 4.8 6.4 0.00 0.00 0.00 88 999.5
20260508002336 8 4 4.8 6.4 0.00 0.00 0.00 88 999.5
20260508002136 8 9 4.8 8.0 0.00 0.00 0.00 87 999.5
20260508001936 7 19 6.4 8.0 0.00 0.00 0.00 87 999.4
20260508001736 7 29 6.4 8.0 0.00 0.00 0.00 87 999.4
20260508001536 7 27 4.8 8.0 0.00 0.00 0.00 87 999.4
20260508001338 7 29 4.8 8.0 0.00 0.00 0.00 87 999.4
20260508001136 7 16 4.8 8.0 0.00 0.00 0.00 87 999.4
20260508000936 7 9 4.8 6.4 0.00 0.00 0.00 87 999.4
20260508000735 7 18 6.4 6.4 0.00 0.00 0.00 87 999.4
20260508000535 7 20 4.8 8.0 0.00 0.00 0.00 87 999.4
20260508000336 7 17 6.4 8.0 0.00 0.00 0.00 87 999.4
20260508000135 7 21 6.4 9.7 0.00 0.00 0.00 87 999.3
20260507235935 8 28 6.4 8.0 0.00 0.00 0.00 87 999.3
20260507235736 8 22 6.4 9.7 0.00 0.00 0.00 87 999.2
20260507235535 8 38 8.0 11.3 0.00 0.00 0.00 87 999.2
20260507235335 8 40 8.0 11.3 0.00 0.00 0.00 87 999.2
20260507235135 8 39 8.0 9.7 0.00 0.00 0.00 87 999.2
20260507234935 8 37 8.0 9.7 0.00 0.00 0.00 87 999.3
20260507234735 8 26 6.4 9.7 0.00 0.00 0.00 87 999.3
20260507234535 8 26 8.0 9.7 0.00 0.00 0.00 86 999.3
20260507234335 8 42 8.0 9.7 0.00 0.00 0.00 86 999.3
20260507234135 8 41 6.4 9.7 0.00 0.00 0.00 86 999.3
20260507233935 8 36 6.4 8.0 0.00 0.00 0.00 86 999.3
20260507233735 8 29 6.4 8.0 0.00 0.00 0.00 86 999.3
20260507233326 8 18 6.4 8.0 0.00 0.00 0.00 86 999.2
20260507233126 8 15 6.4 8.0 0.00 0.00 0.00 86 999.3
20260507232926 8 12 6.4 8.0 0.00 0.00 0.00 86 999.2
20260507232726 8 6 6.4 8.0 0.00 0.00 0.00 86 999.2
20260507232526 8 12 6.4 8.0 0.00 0.00 0.00 86 999.2
20260507232326 8 19 6.4 8.0 0.00 0.00 0.00 86 999.3
20260507232126 8 18 4.8 8.0 0.00 0.00 0.00 86 999.3
20260507231925 8 18 6.4 8.0 0.00 0.00 0.00 86 999.3
20260507231724 8 5 6.4 9.7 0.00 0.00 0.00 86 999.4
20260507231526 8 0 8.0 9.7 0.00 0.00 0.00 86 999.4
20260507231325 8 353 6.4 8.0 0.00 0.00 0.00 86 999.4
20260507231126 8 7 6.4 9.7 0.00 0.00 0.00 86 999.4
20260507230925 8 7 8.0 11.3 0.00 0.00 0.00 86 999.3
20260507230726 8 23 6.4 11.3 0.00 0.00 0.00 86 999.3
20260507230525 8 24 6.4 9.7 0.00 0.00 0.00 86 999.3
20260507230324 8 22 8.0 9.7 0.00 0.00 0.00 86 999.3
20260507230124 8 21 9.7 12.9 0.00 0.00 0.00 86 999.3
20260507225925 8 14 8.0 12.9 0.00 0.00 0.00 85 999.3
20260507225724 8 22 8.0 9.7 0.00 0.00 0.00 86 999.3
20260507225525 8 23 6.4 9.7 0.00 0.00 0.00 85 999.3
20260507225324 8 20 6.4 9.7 0.00 0.00 0.00 86 999.3
20260507225125 8 23 6.4 9.7 0.00 0.00 0.00 85 999.3
20260507224924 8 18 6.4 9.7 0.00 0.00 0.00 85 999.2
20260507224723 8 12 8.0 11.3 0.00 0.00 0.00 85 999.1
20260507224523 8 12 6.4 11.3 0.00 0.00 0.00 85 999.1
20260507224324 8 10 6.4 9.7 0.00 0.00 0.00 85 999.1
20260507224123 8 19 8.0 9.7 0.00 0.00 0.00 85 999.0
20260507223923 8 24 9.7 11.3 0.00 0.00 0.00 85 999.0
20260507223724 8 24 9.7 12.9 0.00 0.00 0.00 85 998.9
20260507223523 8 25 9.7 12.9 0.00 0.00 0.00 85 998.9
20260507223323 8 18 9.7 12.9 0.00 0.00 0.00 85 998.9
20260507223123 8 17 8.0 11.3 0.00 0.00 0.00 85 998.8
20260507222923 8 23 8.0 11.3 0.00 0.00 0.00 85 998.9
20260507222723 8 22 8.0 11.3 0.00 0.00 0.00 85 998.9
20260507222523 8 24 9.7 12.9 0.00 0.00 0.00 85 998.8
20260507222323 8 26 11.3 12.9 0.00 0.00 0.00 85 998.8
20260507222123 8 18 11.3 14.5 0.00 0.00 0.00 85 998.9
20260507221923 8 20 9.7 12.9 0.00 0.00 0.00 85 998.8
20260507221722 8 20 9.7 12.9 0.00 0.00 0.00 85 998.9
20260507221523 8 26 6.4 6.4 0.00 0.00 0.00 85 998.9
20260507221322 8 23 6.4 8.0 0.00 0.00 0.00 85 998.9
20260507221122 8 18 8.0 9.7 0.00 0.00 0.00 85 998.9
20260507220923 8 17 8.0 11.3 0.00 0.00 0.00 85 998.9
20260507220722 8 20 8.0 11.3 0.00 0.00 0.00 85 998.9
20260507220522 8 8 9.7 11.3 0.00 0.00 0.00 85 998.9
20260507220323 8 356 8.0 9.7 0.00 0.00 0.00 85 999.0
20260507220122 8 353 6.4 11.3 0.00 0.00 0.00 85 999.0
20260507215922 8 5 8.0 11.3 0.00 0.00 0.00 85 998.9
20260507215722 8 2 9.7 11.3 0.00 0.00 0.00 85 998.8
20260507215522 8 1 11.3 14.5 0.00 0.00 0.00 85 998.8
20260507215322 8 356 9.7 14.5 0.00 0.00 0.00 85 998.8
20260507215122 8 350 9.7 11.3 0.00 0.00 0.00 85 998.9
20260507214922 8 358 8.0 9.7 0.00 0.00 0.00 85 998.9
20260507214722 8 4 6.4 9.7 0.00 0.00 0.00 85 998.9
20260507214521 8 9 6.4 8.0 0.00 0.00 0.00 85 998.9
20260507214322 8 13 8.0 9.7 0.00 0.00 0.00 85 998.9
20260507214122 8 9 9.7 11.3 0.00 0.00 0.00 85 998.9
20260507213922 8 3 9.7 11.3 0.00 0.00 0.00 85 998.9
20260507213722 8 332 6.4 8.0 0.00 0.00 0.00 85 998.9
20260507213522 8 353 8.0 11.3 0.00 0.00 0.00 85 999.0
20260507213322 8 356 8.0 9.7 0.00 0.00 0.00 84 999.0
20260507213122 8 352 8.0 9.7 0.00 0.00 0.00 84 999.0
20260507212922 8 2 8.0 12.9 0.00 0.00 0.00 84 999.0
20260507212721 8 346 9.7 12.9 0.00 0.00 0.00 84 999.1
20260507212522 8 315 6.4 9.7 0.00 0.00 0.00 84 999.1
20260507212321 8 327 6.4 8.0 0.00 0.00 0.00 84 999.1
20260507212122 8 335 6.4 8.0 0.00 0.00 0.00 84 999.0
20260507211922 8 330 8.0 9.7 0.00 0.00 0.00 84 999.0
20260507211722 8 324 6.4 8.0 0.00 0.00 0.00 84 999.0
20260507211521 8 342 6.4 8.0 0.00 0.00 0.00 84 999.0
20260507211321 8 5 6.4 8.0 0.00 0.00 0.00 84 999.0
20260507211121 8 4 6.4 8.0 0.00 0.00 0.00 84 999.0
20260507210921 8 355 4.8 8.0 0.00 0.00 0.00 84 999.0
20260507210721 8 16 4.8 6.4 0.00 0.00 0.00 84 998.9
20260507210521 8 5 4.8 6.4 0.00 0.00 0.00 84 998.9
20260507210321 8 350 4.8 6.4 0.00 0.00 0.00 84 998.9
20260507210120 8 13 6.4 9.7 0.00 0.00 0.00 84 998.8
20260507205913 8 12 8.0 9.7 0.00 0.00 0.00 84 998.8
20260507205713 8 13 6.4 9.7 0.00 0.00 0.00 84 998.8
20260507205513 8 20 9.7 12.9 0.00 0.00 0.00 84 998.8
20260507205313 8 16 8.0 12.9 0.00 0.00 0.00 84 998.7
20260507205113 8 15 8.0 9.7 0.00 0.00 0.00 84 998.7
20260507204913 8 15 8.0 9.7 0.00 0.00 0.00 84 998.7
20260507204713 8 15 8.0 12.9 0.00 0.00 0.00 84 998.6
20260507204513 8 15 8.0 12.9 0.00 0.00 0.00 84 998.6
20260507204312 8 7 6.4 8.0 0.00 0.00 0.00 84 998.7
20260507204114 8 5 6.4 8.0 0.00 0.00 0.00 84 998.7
20260507203912 8 353 8.0 9.7 0.00 0.00 0.00 84 998.7
20260507203712 8 317 6.4 9.7 0.00 0.00 0.00 84 998.7
20260507203512 8 340 6.4 8.0 0.00 0.00 0.00 84 998.7
20260507203312 8 355 6.4 6.4 0.00 0.00 0.00 84 998.6
20260507203112 8 2 6.4 6.4 0.00 0.00 0.00 84 998.6
20260507202912 8 345 6.4 8.0 0.00 0.00 0.00 84 998.6
20260507202712 8 353 6.4 9.7 0.00 0.00 0.00 84 998.6
20260507202512 8 6 6.4 8.0 0.00 0.00 0.00 84 998.6
20260507202312 8 15 8.0 12.9 0.00 0.00 0.00 84 998.5
20260507202112 8 14 9.7 12.9 0.00 0.00 0.00 84 998.5
20260507201912 8 12 8.0 11.3 0.00 0.00 0.00 84 998.5
20260507201712 8 19 4.8 8.0 0.00 0.00 0.00 84 998.5
20260507201512 8 18 4.8 8.0 0.00 0.00 0.00 84 998.5
20260507201311 8 3 6.4 8.0 0.00 0.00 0.00 84 998.6
20260507201111 8 326 6.4 8.0 0.00 0.00 0.00 84 998.6
20260507200911 8 332 6.4 8.0 0.00 0.00 0.00 84 998.5
20260507200711 8 359 6.4 8.0 0.00 0.00 0.00 83 998.5
20260507200511 8 4 4.8 6.4 0.00 0.00 0.00 84 998.4
20260507200311 9 6 6.4 6.4 0.00 0.00 0.00 83 998.4
20260507200111 9 5 4.8 6.4 0.00 0.00 0.00 84 998.5
20260507195911 9 9 4.8 6.4 0.00 0.00 0.00 83 998.4
20260507195711 9 11 6.4 9.7 0.00 0.00 0.00 83 998.4
20260507195511 9 3 6.4 9.7 0.00 0.00 0.00 83 998.4
20260507195311 9 8 6.4 9.7 0.00 0.00 0.00 83 998.4
20260507195111 9 13 8.0 9.7 0.00 0.00 0.00 83 998.3
20260507194911 9 12 8.0 9.7 0.00 0.00 0.00 83 998.3
20260507194711 9 15 8.0 11.3 0.00 0.00 0.00 83 998.3
20260507194511 9 18 9.7 12.9 0.00 0.00 0.00 83 998.2
20260507194312 9 13 9.7 12.9 0.00 0.00 0.00 83 998.1
20260507194112 9 12 8.0 11.3 0.00 0.00 0.00 83 998.1
20260507193910 9 13 9.7 12.9 0.00 0.00 0.00 83 998.2
20260507193710 9 5 9.7 11.3 0.00 0.00 0.00 83 998.2
20260507193510 9 359 9.7 11.3 0.00 0.00 0.00 83 998.2
20260507193310 9 335 9.7 11.3 0.00 0.00 0.00 83 998.2
20260507193110 9 9 8.0 9.7 0.00 0.00 0.00 83 998.3
20260507192910 9 14 8.0 9.7 0.00 0.00 0.00 83 998.2
20260507192710 9 12 8.0 9.7 0.00 0.00 0.00 83 998.2
20260507192510 9 18 8.0 9.7 0.00 0.00 0.00 83 998.2
20260507192310 9 14 8.0 9.7 0.00 0.00 0.00 83 998.2
20260507192110 9 7 8.0 9.7 0.00 0.00 0.00 83 998.1
20260507191910 9 6 8.0 11.3 0.00 0.00 0.00 83 998.1
20260507191710 9 10 8.0 11.3 0.00 0.00 0.00 83 998.2
20260507191510 9 11 9.7 9.7 0.00 0.00 0.00 83 998.1
20260507191310 9 346 8.0 9.7 0.00 0.00 0.00 83 998.1
20260507191109 9 0 6.4 9.7 0.00 0.00 0.00 83 998.1
20260507190909 9 11 8.0 11.3 0.00 0.00 0.00 83 998.0
20260507190709 9 2 9.7 12.9 0.00 0.00 0.00 83 998.0
20260507190509 9 359 9.7 12.9 0.00 0.00 0.00 83 998.0
20260507190309 9 0 8.0 9.7 0.00 0.00 0.00 83 998.0
20260507190109 9 12 8.0 9.7 0.00 0.00 0.00 83 998.0
20260507185909 9 23 9.7 11.3 0.00 0.00 0.00 83 998.0
20260507185709 9 16 8.0 11.3 0.00 0.00 0.00 83 998.0
20260507185509 9 356 6.4 9.7 0.00 0.00 0.00 83 998.0
20260507185309 9 0 8.0 9.7 0.00 0.00 0.00 83 998.0
20260507185109 9 357 9.7 11.3 0.00 0.00 0.00 83 998.0
20260507184909 9 351 9.7 11.3 0.00 0.00 0.00 83 997.9
20260507184709 9 2 9.7 12.9 0.00 0.00 0.00 83 997.9
20260507184509 9 4 9.7 12.9 0.00 0.00 0.00 83 997.9
20260507184313 9 7 9.7 12.9 0.00 0.00 0.00 83 997.9
20260507184109 9 358 6.4 11.3 0.00 0.00 0.00 83 997.9
20260507183908 9 10 8.0 11.3 0.00 0.00 0.00 83 997.8
20260507183708 9 10 9.7 11.3 0.00 0.00 0.00 83 997.8
20260507183508 9 3 9.7 11.3 0.00 0.00 0.00 83 997.8
20260507183308 9 357 11.3 14.5 0.00 0.00 0.00 83 997.8
20260507183108 9 318 11.3 14.5 0.00 0.00 0.00 83 997.7
20260507182908 9 322 11.3 14.5 0.00 0.00 0.00 83 997.7
20260507182708 9 358 12.9 14.5 0.00 0.00 0.00 83 997.7
20260507182306 9 0 8.0 9.7 0.00 0.00 0.00 83 997.7
20260507182102 9 20 9.7 14.5 0.00 0.00 0.00 83 997.6
20260507181902 9 7 9.7 14.5 0.00 0.00 0.00 83 997.6
20260507181702 9 6 8.0 11.3 0.00 0.00 0.00 83 997.5
20260507181502 9 11 8.0 11.3 0.00 0.00 0.00 83 997.5
20260507181302 9 1 6.4 9.7 0.00 0.00 0.00 83 997.4
20260507181102 9 9 8.0 9.7 0.00 0.00 0.00 83 997.4
20260507180901 9 16 9.7 14.5 0.00 0.00 0.00 83 997.3
20260507180702 9 3 9.7 16.1 0.00 0.00 0.00 83 997.3
20260507180502 9 359 6.4 9.7 0.00 0.00 0.00 83 997.2
20260507180301 9 3 8.0 9.7 0.00 0.00 0.00 83 997.2
20260507175902 9 19 8.0 12.9 0.00 0.00 0.00 83 997.2
20260507175702 10 19 8.0 11.3 0.00 0.00 0.00 83 997.2
20260507175501 10 20 9.7 12.9 0.00 0.00 0.00 82 997.1
20260507175302 10 16 9.7 12.9 0.00 0.00 0.00 83 997.1
20260507175102 10 10 9.7 12.9 0.00 0.00 0.00 82 997.0
20260507174901 10 3 11.3 14.5 0.00 0.00 0.00 82 997.0
20260507174701 10 7 12.9 16.1 0.00 0.00 0.00 83 996.9
20260507174502 10 12 11.3 16.1 0.00 0.00 0.00 83 996.9
20260507174301 10 0 11.3 14.5 0.00 0.00 0.00 82 997.0
20260507174102 10 11 11.3 14.5 0.00 0.00 0.00 83 997.0
20260507173902 10 10 11.3 14.5 0.00 0.00 0.00 83 997.0
20260507173701 10 333 11.3 12.9 0.00 0.00 0.00 83 997.0
20260507173501 10 328 11.3 12.9 0.00 0.00 0.00 83 997.0
20260507173301 10 321 11.3 17.7 0.00 0.00 0.00 83 997.0
20260507173101 10 328 9.7 17.7 0.00 0.00 0.00 83 997.0
20260507172901 10 305 11.3 12.9 0.00 0.00 0.00 83 997.0
20260507172701 10 304 12.9 17.7 0.00 0.00 0.00 82 997.0
20260507172501 10 312 12.9 17.7 0.00 0.00 0.00 83 997.0
20260507172301 10 328 12.9 16.1 0.00 0.00 0.00 83 997.0
20260507172100 10 318 12.9 19.3 0.00 0.00 0.00 82 997.0
20260507171901 10 323 11.3 19.3 0.00 0.00 0.00 82 997.0
20260507171701 10 328 11.3 16.1 0.00 0.00 0.00 82 997.0
20260507171501 10 307 12.9 14.5 0.00 0.00 0.00 82 997.0
20260507171301 10 308 11.3 14.5 0.00 0.00 0.00 82 996.9
20260507171101 10 310 14.5 19.3 0.00 0.00 0.00 82 996.9
20260507170901 10 312 12.9 19.3 0.00 0.00 0.00 82 996.9
20260507170700 10 308 14.5 17.7 0.00 0.00 0.00 82 996.9
20260507170500 10 310 14.5 17.7 0.00 0.00 0.00 82 996.9
20260507170300 10 310 9.7 16.1 0.00 0.00 0.00 82 996.8
20260507170100 10 320 9.7 14.5 0.00 0.00 0.00 82 996.8
20260507165900 10 309 12.9 16.1 0.00 0.00 0.00 82 996.8
20260507165700 10 315 11.3 16.1 0.00 0.00 0.00 82 996.8
20260507165500 10 305 11.3 14.5 0.00 0.00 0.00 82 996.7
20260507165300 10 296 11.3 16.1 0.00 0.00 0.00 82 996.7
20260507165059 10 305 12.9 16.1 0.00 0.00 0.00 82 996.7
20260507164900 10 311 12.9 17.7 0.00 0.00 0.00 82 996.7
20260507164659 10 311 16.1 20.9 0.00 0.00 0.00 82 996.7
20260507164500 10 308 12.9 20.9 0.00 0.00 0.00 82 996.6
20260507164300 10 349 11.3 16.1 0.00 0.00 0.00 83 996.6
20260507164059 10 348 12.9 16.1 0.00 0.00 0.00 82 996.6
20260507163900 10 326 14.5 17.7 0.00 0.00 0.00 82 996.6
20260507163700 10 321 14.5 19.3 0.00 0.00 0.00 82 996.6
20260507163459 10 3 14.5 16.1 0.00 0.00 0.00 82 996.5
20260507163259 10 345 14.5 17.7 0.00 0.00 0.00 82 996.5
20260507163059 10 319 14.5 17.7 0.00 0.00 0.00 82 996.5
20260507162859 10 318 14.5 19.3 0.00 0.00 0.00 82 996.5
20260507162659 10 318 14.5 19.3 0.00 0.00 0.00 82 996.5
20260507162459 10 313 16.1 19.3 0.00 0.00 0.00 82 996.5
20260507162259 10 313 14.5 19.3 0.00 0.00 0.00 82 996.5
20260507162059 10 315 14.5 19.3 0.00 0.00 0.00 82 996.5
20260507161859 10 325 14.5 19.3 0.00 0.00 0.00 82 996.6
20260507161658 10 359 9.7 16.1 0.00 0.00 0.00 82 996.6
20260507161458 10 20 11.3 16.1 0.00 0.00 0.00 82 996.6
20260507161259 10 16 12.9 16.1 0.00 0.00 0.00 82 996.6
20260507161058 10 13 12.9 17.7 0.00 0.00 0.00 82 996.6
20260507160858 10 326 12.9 17.7 0.00 0.00 0.00 82 996.6
20260507160659 10 312 12.9 16.1 0.00 0.00 0.00 82 996.6
20260507160458 10 320 12.9 16.1 0.00 0.00 0.00 82 996.5
20260507160258 10 311 12.9 16.1 0.00 0.00 0.00 82 996.5
20260507160058 10 321 11.3 16.1 0.00 0.00 0.00 82 996.5
20260507155858 10 306 12.9 16.1 0.00 0.00 0.00 82 996.5
20260507155658 11 300 12.9 16.1 0.00 0.00 0.00 82 996.5
20260507155458 11 315 11.3 14.5 0.00 0.00 0.00 82 996.5
20260507155258 11 333 9.7 12.9 0.00 0.00 0.00 82 996.4
20260507155058 11 339 12.9 16.1 0.00 0.00 0.00 82 996.3
20260507154850 11 5 11.3 16.1 0.00 0.00 0.00 82 996.3
20260507154649 11 20 11.3 14.5 0.00 0.00 0.00 82 996.3
20260507154450 11 6 12.9 17.7 0.00 0.00 0.00 82 996.2
20260507154250 10 11 12.9 17.7 0.00 0.00 0.00 82 996.2
20260507154050 10 326 11.3 16.1 0.00 0.00 0.00 83 996.2
20260507153850 10 312 12.9 16.1 0.00 0.00 0.00 82 996.1
20260507153713 10 330 11.3 12.9 0.00 0.00 0.00 83 996.2
20260507153649 10 321 12.9 16.1 0.00 0.00 0.00 82 996.2
20260507153449 10 330 11.3 12.9 0.00 0.00 0.00 83 996.2
20260507153348 10 325 16.1 20.9 0.00 0.00 0.00 83 996.2
20260507153249 10 318 14.5 17.7 0.00 0.00 0.00 83 996.2
20260507153049 10 325 16.1 20.9 0.00 0.00 0.00 83 996.2
20260507152849 10 304 14.5 19.3 0.00 0.00 0.00 83 996.2
20260507152736 10 351 12.9 19.3 0.00 0.00 0.00 83 996.2
20260507152649 10 306 16.1 19.3 0.00 0.00 0.00 83 996.2
20260507152449 10 315 16.1 20.9 0.00 0.00 0.00 83 996.2
20260507152249 10 319 16.1 20.9 0.00 0.00 0.00 83 996.2
20260507152048 10 333 14.5 19.3 0.00 0.00 0.00 83 996.2
20260507151848 10 351 12.9 19.3 0.00 0.00 0.00 83 996.2
20260507151649 10 0 11.3 16.1 0.00 0.00 0.00 83 996.2
20260507151448 10 9 11.3 14.5 0.00 0.00 0.00 83 996.3
20260507151248 10 17 12.9 17.7 0.00 0.00 0.00 83 996.3
20260507151049 10 15 14.5 17.7 0.00 0.00 0.00 83 996.3
20260507150849 10 345 12.9 16.1 0.00 0.00 0.00 83 996.3
20260507150649 10 346 14.5 17.7 0.00 0.00 0.00 83 996.2
20260507150448 11 352 14.5 17.7 0.00 0.00 0.00 83 996.2
20260507150248 11 20 12.9 17.7 0.00 0.00 0.00 83 996.2
20260507150048 11 11 14.5 17.7 0.00 0.00 0.00 83 996.1
20260507145848 11 345 16.1 19.3 0.00 0.00 0.00 83 996.1
20260507145648 11 314 14.5 19.3 0.00 0.00 0.00 83 996.1
20260507145448 11 332 14.5 19.3 0.00 0.00 0.00 83 996.0
20260507145248 11 334 14.5 22.5 0.00 0.00 0.00 83 996.0
20260507145047 11 336 12.9 16.1 0.00 0.00 0.00 83 996.0
20260507144847 11 341 12.9 16.1 0.00 0.00 0.00 83 996.1
20260507144647 11 337 14.5 16.1 0.00 0.00 0.00 83 996.1
20260507144447 11 348 12.9 17.7 0.00 0.00 0.00 83 996.1
20260507144247 11 313 14.5 17.7 0.00 0.00 0.00 83 996.0
20260507144047 11 0 16.1 20.9 0.00 0.00 0.00 83 995.9
20260507143848 11 357 12.9 17.7 0.00 0.00 0.00 83 995.8
20260507143648 11 321 12.9 19.3 0.00 0.00 0.00 83 995.8
20260507143447 11 300 12.9 17.7 0.00 0.00 0.00 83 995.7
20260507143247 11 310 12.9 17.7 0.00 0.00 0.00 83 995.7
20260507143047 11 312 14.5 19.3 0.00 0.00 0.00 83 995.7
20260507142847 11 305 12.9 14.5 0.00 0.00 0.00 83 995.7
20260507142647 11 304 11.3 14.5 0.00 0.00 0.00 83 995.7
20260507142447 11 302 12.9 14.5 0.00 0.00 0.00 83 995.7
20260507142247 11 297 14.5 19.3 0.00 0.00 0.00 83 995.6
20260507142047 11 294 12.9 17.7 0.00 0.00 0.00 83 995.6
20260507141846 11 300 11.3 17.7 0.00 0.00 0.00 83 995.6
20260507141646 11 309 11.3 14.5 0.00 0.00 0.00 83 995.7
20260507141446 11 304 9.7 14.5 0.00 0.00 0.00 83 995.7
20260507141247 11 307 11.3 12.9 0.00 0.00 0.00 83 995.7
20260507141047 11 303 12.9 19.3 0.00 0.00 0.00 83 995.7
20260507140846 11 304 12.9 19.3 0.00 0.00 0.00 83 995.7
20260507140646 11 309 12.9 16.1 0.00 0.00 0.00 83 995.8
20260507140446 11 301 12.9 16.1 0.00 0.00 0.00 83 995.8
20260507140246 11 300 14.5 20.9 0.00 0.00 0.00 83 995.8
20260507140046 11 296 14.5 20.9 0.00 0.00 0.00 83 995.8
20260507135846 11 293 11.3 16.1 0.00 0.00 0.00 83 995.8
20260507135646 11 304 9.7 16.1 0.00 0.00 0.00 83 995.7
20260507135446 11 309 11.3 16.1 0.00 0.00 0.00 83 995.8
20260507135246 11 315 11.3 14.5 0.00 0.00 0.00 83 995.8
20260507135046 11 287 12.9 16.1 0.00 0.00 0.00 83 995.7
20260507134845 11 330 14.5 16.1 0.00 0.00 0.00 83 995.7
20260507134645 11 315 12.9 14.5 0.00 0.00 0.00 83 995.7
20260507134446 11 323 12.9 14.5 0.00 0.00 0.00 83 995.6
20260507134247 11 334 11.3 14.5 0.00 0.00 0.00 83 995.6
20260507134045 11 306 12.9 17.7 0.00 0.00 0.00 83 995.5
20260507133845 11 292 12.9 17.7 0.00 0.00 0.00 83 995.5
20260507133646 11 292 11.3 17.7 0.00 0.00 0.00 84 995.5
20260507133446 11 317 12.9 17.7 0.00 0.00 0.00 84 995.4
20260507133245 11 323 14.5 17.7 0.00 0.00 0.00 84 995.3
20260507133045 11 312 12.9 17.7 0.00 0.00 0.00 84 995.2
20260507132846 11 331 12.9 16.1 0.00 0.00 0.00 84 995.3
20260507132645 11 309 12.9 16.1 0.00 0.00 0.00 84 995.2
20260507132444 11 317 12.9 16.1 0.00 0.00 0.00 84 995.2
20260507132245 11 343 12.9 17.7 0.00 0.00 0.00 84 995.2
20260507132045 11 344 12.9 17.7 0.00 0.00 0.00 84 995.2
20260507131845 11 321 12.9 16.1 0.00 0.00 0.00 84 995.2
20260507131645 11 304 12.9 16.1 0.00 0.00 0.00 84 995.2
20260507131236 11 335 12.9 16.1 0.00 0.00 0.00 84 995.2
20260507131036 11 350 9.7 12.9 0.00 0.00 0.00 84 995.2
20260507130836 11 312 8.0 12.9 0.00 0.00 0.00 84 995.3
20260507130636 11 285 8.0 9.7 0.00 0.00 0.00 84 995.2
20260507130436 11 285 9.7 12.9 0.00 0.00 0.00 84 995.2
20260507130236 11 298 9.7 14.5 0.00 0.00 0.00 84 995.2
20260507130036 11 303 9.7 14.5 0.00 0.00 0.00 84 995.3
20260507125835 11 290 9.7 12.9 0.00 0.00 0.00 84 995.3
20260507125635 11 292 9.7 12.9 0.00 0.00 0.00 84 995.4
20260507125435 11 282 6.4 9.7 0.00 0.00 0.00 84 995.4
20260507125235 11 279 8.0 11.3 0.00 0.00 0.00 84 995.4
20260507125035 11 279 8.0 11.3 0.00 0.00 0.00 84 995.4
20260507124835 11 285 8.0 11.3 0.00 0.00 0.00 84 995.3
20260507124635 11 303 8.0 11.3 0.00 0.00 0.00 84 995.3
20260507124435 11 301 9.7 12.9 0.00 0.00 0.00 84 995.2
20260507124235 11 297 9.7 12.9 0.00 0.00 0.00 84 995.2
20260507124035 11 298 9.7 16.1 0.00 0.00 0.00 84 995.2
20260507123835 11 281 9.7 16.1 0.00 0.00 0.00 84 995.2
20260507123635 11 291 6.4 9.7 0.00 0.00 0.00 84 995.1
20260507123435 11 277 8.0 11.3 0.00 0.00 0.00 84 995.1
20260507123235 10 291 8.0 11.3 0.00 0.00 0.00 84 995.0
20260507123035 10 287 9.7 11.3 0.00 0.00 0.00 84 995.0
20260507122835 11 308 9.7 11.3 0.00 0.00 0.00 84 995.0
20260507122634 10 314 8.0 11.3 0.00 0.00 0.00 84 995.0
20260507122434 10 297 6.4 9.7 0.00 0.00 0.00 84 995.0
20260507122234 10 299 6.4 9.7 0.00 0.00 0.00 84 995.0
20260507122034 10 296 8.0 14.5 0.00 0.00 0.00 84 995.1
20260507121834 10 301 9.7 14.5 0.00 0.00 0.00 84 995.1
20260507121634 10 285 8.0 12.9 0.00 0.00 0.00 84 995.2
20260507121434 10 276 8.0 11.3 0.00 0.00 0.00 84 995.2
20260507121234 10 273 9.7 12.9 0.00 0.00 0.00 84 995.2
20260507121034 10 286 8.0 12.9 0.00 0.00 0.00 84 995.2
20260507120834 10 305 8.0 11.3 0.00 0.00 0.00 84 995.1
20260507120634 10 305 9.7 14.5 0.00 0.00 0.00 85 995.1
20260507120434 10 312 9.7 14.5 0.00 0.00 0.00 84 995.0
20260507120234 10 304 8.0 11.3 0.00 0.00 0.00 84 995.0
20260507120034 10 300 9.7 12.9 0.00 0.00 0.00 84 995.0
20260507115834 10 295 9.7 11.3 0.00 0.00 0.00 84 995.1
20260507115633 10 289 11.3 16.1 0.00 0.00 0.00 84 995.1
20260507115433 10 282 9.7 16.1 0.00 0.00 0.00 84 995.0
20260507115233 10 282 8.0 9.7 0.00 0.00 0.00 85 995.0
20260507115033 10 281 8.0 11.3 0.00 0.00 0.00 85 994.9
20260507114833 10 285 9.7 16.1 0.00 0.00 0.00 85 994.8
20260507114633 10 282 9.7 16.1 0.00 0.00 0.00 85 994.8
20260507114433 10 278 11.3 16.1 0.00 0.00 0.00 85 994.8
20260507114233 10 303 12.9 19.3 0.00 0.00 0.00 84 994.8
20260507114033 10 298 12.9 16.1 0.00 0.00 0.00 85 994.8
20260507113833 10 296 12.9 17.7 0.00 0.00 0.00 84 994.8
20260507113633 10 302 14.5 17.7 0.00 0.00 0.00 84 994.8
20260507113433 10 298 14.5 19.3 0.00 0.00 0.00 84 994.8
20260507113233 10 302 12.9 16.1 0.00 0.00 0.00 85 994.9
20260507113033 10 293 12.9 16.1 0.00 0.00 0.00 84 994.9
20260507112833 10 295 12.9 16.1 0.00 0.00 0.00 84 994.9
20260507112633 10 297 12.9 19.3 0.00 0.00 0.00 84 994.9
20260507112432 10 299 14.5 19.3 0.00 0.00 0.00 84 994.8
20260507112232 10 304 12.9 16.1 0.00 0.00 0.00 84 994.9
20260507112032 10 301 11.3 16.1 0.00 0.00 0.00 84 994.9
20260507111835 10 287 12.9 16.1 0.00 0.00 0.00 84 994.9
20260507111632 10 287 12.9 16.1 0.00 0.00 0.00 84 994.8
20260507111432 10 300 11.3 12.9 0.00 0.00 0.00 84 994.7
20260507111232 10 295 9.7 16.1 0.00 0.00 0.00 84 994.7
20260507111032 10 296 11.3 16.1 0.00 0.00 0.00 84 994.7
20260507110832 10 308 9.7 14.5 0.00 0.00 0.00 84 994.6
20260507110632 10 287 8.0 11.3 0.00 0.00 0.00 85 994.6
20260507110432 10 282 9.7 12.9 0.00 0.00 0.00 84 994.5
20260507110232 10 291 11.3 16.1 0.00 0.00 0.00 84 994.5
20260507110032 10 278 11.3 16.1 0.00 0.00 0.00 84 994.6
20260507105832 10 280 9.7 16.1 0.00 0.00 0.00 84 994.6
20260507105632 10 283 12.9 19.3 0.00 0.00 0.00 84 994.6
20260507105431 10 281 11.3 19.3 0.00 0.00 0.00 84 994.5
20260507105231 10 279 11.3 16.1 0.00 0.00 0.00 84 994.6
20260507105031 10 276 12.9 16.1 0.00 0.00 0.00 84 994.6
20260507104831 10 288 12.9 14.5 0.00 0.00 0.00 84 994.5
20260507104631 10 290 14.5 17.7 0.00 0.00 0.00 84 994.5
20260507104431 10 295 12.9 17.7 0.00 0.00 0.00 84 994.4
20260507104240 10 295 12.9 17.7 0.00 0.00 0.00 84 994.3
20260507104030 10 299 14.5 19.3 0.00 0.00 0.00 84 994.1
20260507103822 10 292 12.9 19.3 0.00 0.00 0.00 84 994.1
20260507103622 10 291 11.3 12.9 0.00 0.00 0.00 84 994.1
20260507103422 10 289 11.3 14.5 0.00 0.00 0.00 84 994.1
20260507103222 10 280 9.7 14.5 0.00 0.00 0.00 84 994.1
20260507103022 10 276 9.7 14.5 0.00 0.00 0.00 84 994.1
20260507102822 10 272 11.3 14.5 0.00 0.00 0.00 84 994.1
20260507102622 10 274 9.7 14.5 0.00 0.00 0.00 84 994.1
20260507102422 10 288 9.7 14.5 0.00 0.00 0.00 84 994.2
20260507102222 10 297 11.3 14.5 0.00 0.00 0.00 83 994.2
20260507102021 10 286 9.7 12.9 0.00 0.00 0.00 83 994.2
20260507101822 10 270 9.7 14.5 0.00 0.00 0.00 84 994.2
20260507101622 10 264 9.7 14.5 0.00 0.00 0.00 84 994.1
20260507101422 10 266 9.7 12.9 0.00 0.00 0.00 84 994.0
20260507101222 10 275 8.0 12.9 0.00 0.00 0.00 84 994.0
20260507101022 10 275 6.4 9.7 0.00 0.00 0.00 84 994.1
20260507100821 10 270 9.7 16.1 0.00 0.00 0.00 84 994.1
20260507100621 10 289 9.7 16.1 0.00 0.00 0.00 84 994.1
20260507100421 10 280 8.0 14.5 0.00 0.00 0.00 83 994.1
20260507100221 10 284 9.7 11.3 0.00 0.00 0.00 83 994.2
20260507100021 10 306 11.3 14.5 0.00 0.00 0.00 83 994.2
20260507095821 10 298 12.9 16.1 0.00 0.00 0.00 83 994.1
20260507095622 10 303 9.7 14.5 0.00 0.00 0.00 83 994.0
20260507095421 11 293 8.0 11.3 0.00 0.00 0.00 83 993.9
20260507095221 11 272 9.7 11.3 0.00 0.00 0.00 83 993.9
20260507095021 11 262 8.0 11.3 0.00 0.00 0.00 83 993.8
20260507094821 11 264 8.0 9.7 0.00 0.00 0.00 83 993.7
20260507094621 11 280 8.0 11.3 0.00 0.00 0.00 83 993.6
20260507094421 11 280 6.4 11.3 0.00 0.00 0.00 83 993.5
20260507094221 10 289 8.0 11.3 0.00 0.00 0.00 83 993.5
20260507094021 10 290 8.0 11.3 0.00 0.00 0.00 83 993.4
20260507093821 10 288 9.7 12.9 0.00 0.00 0.00 83 993.4
20260507093621 11 312 8.0 12.9 0.00 0.00 0.00 83 993.3
20260507093421 11 338 9.7 12.9 0.00 0.00 0.00 83 993.3
20260507093221 11 330 8.0 12.9 0.00 0.00 0.00 83 993.3
20260507093021 11 303 8.0 11.3 0.00 0.00 0.00 83 993.3
20260507092821 11 304 9.7 12.9 0.00 0.00 0.00 83 993.3
20260507092621 10 312 9.7 12.9 0.00 0.00 0.00 83 993.3
20260507092421 10 308 9.7 12.9 0.00 0.00 0.00 83 993.3
20260507092221 10 298 9.7 12.9 0.00 0.00 0.00 83 993.4
20260507092020 10 288 8.0 12.9 0.00 0.00 0.00 83 993.4
20260507091820 10 293 11.3 16.1 0.00 0.00 0.00 83 993.5
20260507091620 10 283 11.3 16.1 0.00 0.00 0.00 83 993.5
20260507091420 11 290 12.9 16.1 0.00 0.00 0.00 83 993.4
20260507091220 11 295 11.3 16.1 0.00 0.00 0.00 83 993.3
20260507091020 11 290 9.7 14.5 0.00 0.00 0.00 83 993.3
20260507090820 11 269 9.7 14.5 0.00 0.00 0.00 83 993.3
20260507090620 11 269 9.7 14.5 0.00 0.00 0.00 83 993.2
20260507090420 11 271 11.3 14.5 0.00 0.00 0.00 83 993.1
20260507090222 11 274 11.3 14.5 0.00 0.00 0.00 84 993.0
20260507090020 11 292 9.7 12.9 0.00 0.00 0.00 84 993.0
20260507085820 11 290 9.7 12.9 0.00 0.00 0.00 83 993.0
20260507085620 11 297 9.7 12.9 0.00 0.00 0.00 84 993.1
20260507085420 11 294 11.3 14.5 0.00 0.00 0.00 84 993.1
20260507085220 11 289 9.7 12.9 0.00 0.00 0.00 83 993.0
20260507085019 11 284 9.7 14.5 0.00 0.00 0.00 84 993.0
20260507084819 11 279 9.7 14.5 0.00 0.00 0.00 84 993.0
20260507084619 11 286 8.0 11.3 0.00 0.00 0.00 84 993.0
20260507084419 11 283 8.0 9.7 0.00 0.00 0.00 84 993.0
20260507084219 11 279 11.3 14.5 0.00 0.00 0.00 84 993.0
20260507084019 11 270 12.9 19.3 0.00 0.00 0.00 84 992.9
20260507083819 11 259 11.3 19.3 0.00 0.00 0.00 84 992.8
20260507083619 11 274 9.7 14.5 0.00 0.00 0.00 84 992.7
20260507083419 11 273 9.7 12.9 0.00 0.00 0.00 83 992.7
20260507083219 11 273 9.7 12.9 0.00 0.00 0.00 84 992.6
20260507083019 11 284 9.7 14.5 0.00 0.00 0.00 84 992.6
20260507082819 11 270 9.7 12.9 0.00 0.00 0.00 84 992.7
20260507082619 11 265 11.3 12.9 0.00 0.00 0.00 84 992.7
20260507082419 11 269 11.3 16.1 0.00 0.00 0.00 84 992.7
20260507082219 11 286 9.7 12.9 0.00 0.00 0.00 83 992.7
20260507082019 11 287 9.7 12.9 0.00 0.00 0.00 84 992.7
20260507081818 11 279 9.7 11.3 0.00 0.00 0.00 84 992.7
20260507081618 11 271 9.7 12.9 0.00 0.00 0.00 84 992.7
20260507081418 11 272 9.7 14.5 0.00 0.00 0.00 84 992.6
20260507081218 11 273 11.3 14.5 0.00 0.00 0.00 84 992.5
20260507081018 11 265 9.7 14.5 0.00 0.00 0.00 84 992.4
20260507080818 11 280 9.7 12.9 0.00 0.00 0.00 84 992.3
20260507080618 11 275 8.0 12.9 0.00 0.00 0.00 84 992.3
20260507080213 11 285 8.0 11.3 0.00 0.00 0.00 84 992.2
20260507080013 11 273 6.4 9.7 0.00 0.00 0.00 84 992.2
20260507075812 10 283 8.0 12.9 0.00 0.00 0.00 84 992.1
20260507075613 10 287 8.0 12.9 0.00 0.00 0.00 84 992.2